{"data":{"norad_id":55772,"intl_designator":"2023-028AH","name":"STARLINK-5835","alt_names":[],"object_type":"PAYLOAD","status":"ACTIVE","operator":null,"country":"US","launch_date":"2023-03-03","launch_site_code":"AFWTR","launch_vehicle":null,"mission":null,"orbit_class":"UNKNOWN","rcs_meters":null,"size_class":null,"mass_kg":null,"dimensions":null,"purposes":["comms"],"wikipedia_slug":null,"has_3d_model":false,"image_url":null,"decayed_at":null,"tle_current":{"epoch":"2026-09-20T22:43:04.812672Z","epoch_age_seconds":64491,"freshness":"FRESH","line1":"1 55772U 23028AH  26263.94658348  .00000707  00000+0  67029-4 0  9998","line2":"2 55772  69.9983  92.0281 0002956 269.1729  90.9092 14.98314283195784","mean_motion":14.98314283,"eccentricity":0.0002956,"inclination_deg":69.9983,"raan_deg":92.0281,"arg_perigee_deg":269.1729,"mean_anomaly_deg":90.9092,"bstar":6.7029e-5,"rev_number":19578,"period_min":96.108007267792,"perigee_km":570.05000350939,"apogee_km":574.15898628117,"semimajor_km":6950.2414948953,"source":"CELESTRAK","updated_at":"2026-09-21T09:00:33.317450Z"}}}